SL-4 R/B

Last updated on Wed Aug 19 2026 00:02:08 GMT+0000 (Coordinated Universal Time)

1 39679U 14021B 26230.38727029 .00011016 00000+0 22076-3 0 9991 2 39679 51.6045 265.7930 0088866 334.9018 24.7661 15.43086239681218
UTC large
Height (km)
Speed (km/s)
/
Latitude / Longitude
Inclination (degrees)
Orbital Period (minutes)
Azimuth
Elevation
Range (km)
Doppler Factor

Next 0 passes for location: London (51.5072 / 0.1276)

No passes found over London.
SL-4 R/B